STARLINK-5624 (55416 NORAD) Tracking and Keplerian Element Data

This shows tracking and keplerian element data for the satellite.

Feedback or suggestion? Click here.




ElementValue
Catalog55416
NameSTARLINK-5624
Epoch Orbit1517
Epoch Day127.25001157
Epoch Year2023
RAAN182.1594
Inclination69.9986
Eccentricity0.000333
Argument of Perigee271.4523
Mean Anonmoly130.5173
Mean Motion15.42202039
Decay Rate-0.0096941
L11 55416U 23014AB 23127.25001157 -.00969410 00000+0 -24627-1 0 9999
L22 55416 69.9986 182.1594 0003330 271.4523 130.5173 15.42202039 15175



Live tracking and technical data element details for STARLINK-5624 (NORAD 55416). STARLINK-5624 can be tracked NOW for your location showing map with azimuth and elevation plus other details from your city location.







IsCatalogInMostPopularTable: catalog: 55416, numindb: 1
Update: records affected: 1



GetName: 55416 STARLINK-5624

Hit Count: updated at: Mon, 05 Jun 2023 19:15:59 GMT